| time (UTC) | temp F | wind direction | speed MPH | gust MPH | rain 1hr in | rain 24hr in | rain mn in | humidity % | barometer mb |
| 20260510201026 | 57 | 94 | 5.0 | 0.0 | 0.00 | 0.00 | 0.00 | 35 | 1026.0 |
| 20260510194032 | 56 | 53 | 3.0 | 0.0 | 0.00 | 0.00 | 0.00 | 40 | 1026.0 |
| 20260510193026 | 56 | 74 | 3.0 | 0.0 | 0.00 | 0.00 | 0.00 | 37 | 1026.1 |
| 20260510191035 | 55 | 117 | 1.0 | 0.0 | 0.00 | 0.00 | 0.00 | 39 | 1026.0 |
| 20260510184022 | 54 | 133 | 4.0 | 0.0 | 0.00 | 0.00 | 0.00 | 42 | 1027.0 |
| 20260510183034 | 54 | 42 | 3.0 | 0.0 | 0.00 | 0.00 | 0.00 | 41 | 1027.2 |
| 20260510181023 | 54 | 339 | 1.0 | 0.0 | 0.00 | 0.00 | 0.00 | 39 | 1027.3 |
| 20260510180023 | 53 | 33 | 4.0 | 0.0 | 0.00 | 0.00 | 0.00 | 41 | 1027.4 |
| 20260510175039 | 52 | 17 | 3.0 | 0.0 | 0.00 | 0.00 | 0.00 | 42 | 1027.6 |
| 20260510173032 | 51 | 101 | 3.0 | 0.0 | 0.00 | 0.00 | 0.00 | 42 | 1027.5 |
| 20260510172027 | 50 | 98 | 3.0 | 0.0 | 0.00 | 0.00 | 0.00 | 44 | 1027.6 |
| 20260510171022 | 50 | 110 | 3.0 | 0.0 | 0.00 | 0.00 | 0.00 | 43 | 1027.4 |
| 20260510170035 | 49 | 9 | 4.0 | 0.0 | 0.00 | 0.00 | 0.00 | 45 | 1027.5 |
| 20260510165025 | 50 | 38 | 3.0 | 0.0 | 0.00 | 0.00 | 0.00 | 43 | 1027.4 |
| 20260510164025 | 49 | 86 | 4.0 | 0.0 | 0.00 | 0.00 | 0.00 | 45 | 1027.3 |
| 20260510163040 | 49 | 67 | 2.0 | 0.0 | 0.00 | 0.00 | 0.00 | 46 | 1027.3 |
| 20260510161029 | 47 | 108 | 3.0 | 0.0 | 0.00 | 0.00 | 0.00 | 50 | 1027.3 |
| 20260510160021 | 47 | 88 | 2.0 | 0.0 | 0.00 | 0.00 | 0.00 | 54 | 1027.4 |
| 20260510155038 | 46 | 96 | 3.0 | 0.0 | 0.00 | 0.00 | 0.00 | 56 | 1027.4 |
| 20260510154030 | 46 | 82 | 1.0 | 0.0 | 0.00 | 0.00 | 0.00 | 59 | 1027.5 |
| 20260510152025 | 44 | 115 | 1.0 | 0.0 | 0.00 | 0.00 | 0.00 | 63 | 1027.1 |
| 20260510151018 | 43 | 103 | 2.0 | 0.0 | 0.00 | 0.00 | 0.00 | 66 | 1027.1 |
| 20260510150035 | 43 | 94 | 1.0 | 0.0 | 0.00 | 0.00 | 0.00 | 69 | 1027.0 |
| 20260510144021 | 41 | 84 | 1.0 | 0.0 | 0.00 | 0.00 | 0.00 | 73 | 1027.2 |
| 20260510143040 | 41 | 90 | 2.0 | 0.0 | 0.00 | 0.00 | 0.00 | 73 | 1027.2 |
| 20260510142031 | 41 | 78 | 2.0 | 0.0 | 0.00 | 0.00 | 0.00 | 74 | 1027.0 |
| 20260510141023 | 40 | 65 | 0.0 | 0.0 | 0.00 | 0.00 | 0.00 | 74 | 1026.8 |
| 20260510140033 | 40 | 83 | 2.0 | 0.0 | 0.00 | 0.00 | 0.00 | 74 | 1026.8 |
| 20260510135027 | 40 | 110 | 0.0 | 0.0 | 0.00 | 0.00 | 0.00 | 73 | 1026.7 |
| 20260510133039 | 39 | 122 | 0.0 | 0.0 | 0.00 | 0.00 | 0.00 | 73 | 1026.7 |
| 20260510132031 | 39 | 178 | 0.0 | 0.0 | 0.00 | 0.00 | 0.00 | 72 | 1026.5 |
| 20260510131022 | 39 | 190 | 0.0 | 0.0 | 0.00 | 0.00 | 0.00 | 71 | 1026.4 |
| 20260510130022 | 38 | 190 | 0.0 | 0.0 | 0.00 | 0.00 | 0.00 | 75 | 1027.0 |
| 20260510124035 | 36 | 190 | 0.0 | 0.0 | 0.00 | 0.00 | 0.00 | 81 | 1026.7 |
| 20260510123027 | 34 | 190 | 0.0 | 0.0 | 0.00 | 0.00 | 0.00 | 82 | 1026.7 |
| 20260510122025 | 33 | 190 | 0.0 | 0.0 | 0.00 | 0.00 | 0.00 | 83 | 1026.4 |
| 20260510121038 | 34 | 190 | 0.0 | 0.0 | 0.00 | 0.00 | 0.00 | 83 | 1026.4 |
| 20260510120034 | 34 | 190 | 0.0 | 0.0 | 0.00 | 0.00 | 0.00 | 84 | 1026.3 |
| 20260510115026 | 34 | 190 | 0.0 | 0.0 | 0.00 | 0.00 | 0.00 | 84 | 1026.3 |
| 20260510114038 | 34 | 190 | 0.0 | 0.0 | 0.00 | 0.00 | 0.00 | 83 | 1026.0 |
| 20260510113029 | 34 | 190 | 0.0 | 0.0 | 0.00 | 0.00 | 0.00 | 84 | 1025.8 |
| 20260510111019 | 34 | 190 | 0.0 | 0.0 | 0.00 | 0.00 | 0.00 | 85 | 1025.5 |
| 20260510110032 | 34 | 190 | 0.0 | 0.0 | 0.00 | 0.00 | 0.00 | 84 | 1025.3 |
| 20260510105028 | 34 | 190 | 0.0 | 0.0 | 0.00 | 0.00 | 0.00 | 85 | 1025.2 |
| 20260510104022 | 34 | 190 | 0.0 | 0.0 | 0.00 | 0.00 | 0.00 | 85 | 1025.4 |
| 20260510103039 | 34 | 167 | 0.0 | 0.0 | 0.00 | 0.00 | 0.00 | 85 | 1025.3 |
| 20260510102035 | 34 | 167 | 0.0 | 0.0 | 0.00 | 0.00 | 0.00 | 84 | 1025.1 |
| 20260510101028 | 35 | 166 | 0.0 | 0.0 | 0.00 | 0.00 | 0.00 | 83 | 1024.9 |
| 20260510095025 | 34 | 165 | 0.0 | 0.0 | 0.00 | 0.00 | 0.00 | 83 | 1024.7 |
| 20260510093021 | 34 | 166 | 1.0 | 0.0 | 0.00 | 0.00 | 0.00 | 82 | 1024.6 |
| 20260510091031 | 34 | 166 | 2.0 | 0.0 | 0.00 | 0.00 | 0.00 | 82 | 1024.5 |
| 20260510085018 | 32 | 165 | 0.0 | 0.0 | 0.00 | 0.00 | 0.00 | 84 | 1024.3 |
| 20260510083038 | 32 | 165 | 0.0 | 0.0 | 0.00 | 0.00 | 0.00 | 83 | 1024.9 |
| 20260510082032 | 32 | 165 | 2.0 | 0.0 | 0.00 | 0.00 | 0.00 | 81 | 1024.6 |
| 20260510081027 | 32 | 166 | 0.0 | 0.0 | 0.00 | 0.00 | 0.00 | 79 | 1024.4 |
| 20260510080040 | 33 | 166 | 1.0 | 0.0 | 0.00 | 0.00 | 0.00 | 81 | 1024.2 |
| 20260510075037 | 33 | 165 | 3.0 | 0.0 | 0.00 | 0.00 | 0.00 | 81 | 1024.1 |
| 20260510073026 | 32 | 166 | 2.0 | 0.0 | 0.00 | 0.00 | 0.00 | 84 | 1024.0 |
| 20260510072021 | 32 | 166 | 2.0 | 0.0 | 0.00 | 0.00 | 0.00 | 83 | 1024.7 |
| 20260510071036 | 32 | 166 | 1.0 | 0.0 | 0.00 | 0.00 | 0.00 | 82 | 1024.6 |
| 20260510070033 | 33 | 112 | 0.0 | 0.0 | 0.00 | 0.00 | 0.00 | 82 | 1024.5 |
| 20260510065026 | 34 | 112 | 1.0 | 0.0 | 0.00 | 0.00 | 0.00 | 83 | 1024.4 |
| 20260510064021 | 34 | 112 | 2.0 | 0.0 | 0.00 | 0.00 | 0.00 | 83 | 1024.4 |
| 20260510063020 | 34 | 111 | 0.0 | 0.0 | 0.00 | 0.00 | 0.00 | 81 | 1024.4 |
| 20260510062038 | 35 | 111 | 0.0 | 0.0 | 0.00 | 0.00 | 0.00 | 82 | 1024.3 |
| 20260510061035 | 36 | 112 | 0.0 | 0.0 | 0.00 | 0.00 | 0.00 | 82 | 1023.9 |
| 20260510060034 | 36 | 112 | 0.0 | 0.0 | 0.00 | 0.00 | 0.00 | 80 | 1024.0 |
| 20260510055028 | 36 | 112 | 0.0 | 0.0 | 0.00 | 0.00 | 0.00 | 80 | 1024.1 |
| 20260510054023 | 37 | 111 | 0.0 | 0.0 | 0.00 | 0.00 | 0.00 | 79 | 1023.9 |
| 20260510053023 | 38 | 111 | 0.0 | 0.0 | 0.00 | 0.00 | 0.00 | 78 | 1023.8 |
| 20260510052035 | 38 | 112 | 0.0 | 0.0 | 0.00 | 0.00 | 0.00 | 78 | 1024.0 |
| 20260510051028 | 38 | 323 | 0.0 | 0.0 | 0.00 | 0.00 | 0.00 | 77 | 1024.6 |
| 20260510045039 | 39 | 305 | 2.0 | 0.0 | 0.00 | 0.00 | 0.00 | 75 | 1024.4 |
| 20260510044033 | 40 | 206 | 2.0 | 0.0 | 0.00 | 0.00 | 0.00 | 74 | 1024.2 |
| 20260510043035 | 40 | 299 | 1.0 | 0.0 | 0.00 | 0.00 | 0.00 | 74 | 1023.9 |
| 20260510042029 | 41 | 290 | 3.0 | 0.0 | 0.00 | 0.00 | 0.00 | 73 | 1023.4 |
| 20260510040038 | 43 | 281 | 1.0 | 0.0 | 0.00 | 0.00 | 0.00 | 66 | 1023.2 |
| 20260510035032 | 44 | 299 | 0.0 | 0.0 | 0.00 | 0.00 | 0.00 | 61 | 1022.2 |
| 20260510034034 | 45 | 287 | 0.0 | 0.0 | 0.00 | 0.00 | 0.00 | 52 | 1022.0 |
| 20260510032025 | 47 | 246 | 0.0 | 0.0 | 0.00 | 0.00 | 0.00 | 46 | 1022.2 |
| 20260510031022 | 48 | 328 | 1.0 | 0.0 | 0.00 | 0.00 | 0.00 | 45 | 1021.5 |
| 20260510030023 | 49 | 300 | 4.0 | 0.0 | 0.00 | 0.00 | 0.00 | 44 | 1021.9 |
| 20260510025034 | 50 | 286 | 1.0 | 0.0 | 0.00 | 0.00 | 0.00 | 37 | 1021.6 |
| 20260510024028 | 51 | 289 | 1.0 | 0.0 | 0.00 | 0.00 | 0.00 | 37 | 1021.1 |
| 20260510023022 | 52 | 314 | 2.0 | 0.0 | 0.00 | 0.00 | 0.00 | 35 | 1021.0 |
| 20260510021034 | 52 | 260 | 1.0 | 0.0 | 0.00 | 0.00 | 0.00 | 33 | 1020.4 |
| 20260510020030 | 52 | 355 | 1.0 | 0.0 | 0.00 | 0.00 | 0.00 | 31 | 1020.1 |
| 20260510015022 | 52 | 355 | 0.0 | 0.0 | 0.00 | 0.00 | 0.00 | 30 | 1020.0 |
| 20260510014019 | 53 | 276 | 0.0 | 0.0 | 0.00 | 0.00 | 0.00 | 29 | 1019.7 |
| 20260510011033 | 54 | 276 | 0.0 | 0.0 | 0.00 | 0.00 | 0.00 | 28 | 1019.7 |
| 20260510010028 | 55 | 276 | 0.0 | 0.0 | 0.00 | 0.00 | 0.00 | 26 | 1019.5 |
| 20260510005024 | 56 | 276 | 0.0 | 0.0 | 0.00 | 0.00 | 0.00 | 25 | 1019.7 |
| 20260510003032 | 57 | 26 | 0.0 | 0.0 | 0.00 | 0.00 | 0.00 | 24 | 1019.6 |
| 20260510002034 | 57 | 217 | 1.0 | 0.0 | 0.00 | 0.00 | 0.00 | 23 | 1019.6 |
| 20260510001030 | 57 | 317 | 2.0 | 0.0 | 0.00 | 0.00 | 0.00 | 22 | 1019.7 |
| 20260510000023 | 58 | 287 | 3.0 | 0.0 | 0.00 | 0.00 | 0.00 | 21 | 1019.6 |
| 20260509235038 | 59 | 236 | 2.0 | 0.0 | 0.00 | 0.00 | 0.00 | 20 | 1019.6 |
| 20260509234035 | 59 | 319 | 3.0 | 0.0 | 0.00 | 0.00 | 0.00 | 20 | 1019.7 |
| 20260509233031 | 59 | 283 | 4.0 | 0.0 | 0.00 | 0.00 | 0.00 | 20 | 1019.6 |
| 20260509232028 | 60 | 280 | 2.0 | 0.0 | 0.00 | 0.00 | 0.00 | 20 | 1019.7 |
| 20260509231039 | 60 | 280 | 3.0 | 0.0 | 0.00 | 0.00 | 0.00 | 22 | 1019.8 |
| 20260509230033 | 60 | 232 | 3.0 | 0.0 | 0.00 | 0.00 | 0.00 | 22 | 1019.8 |
| 20260509225031 | 60 | 332 | 3.0 | 0.0 | 0.00 | 0.00 | 0.00 | 21 | 1019.9 |
| 20260509224023 | 59 | 288 | 2.0 | 0.0 | 0.00 | 0.00 | 0.00 | 25 | 1019.7 |
| 20260509223039 | 60 | 267 | 3.0 | 0.0 | 0.00 | 0.00 | 0.00 | 25 | 1019.5 |
| 20260509221028 | 61 | 281 | 2.0 | 0.0 | 0.00 | 0.00 | 0.00 | 25 | 1019.5 |
| 20260509220024 | 61 | 252 | 2.0 | 0.0 | 0.00 | 0.00 | 0.00 | 23 | 1019.5 |
| 20260509215039 | 62 | 292 | 3.0 | 0.0 | 0.00 | 0.00 | 0.00 | 23 | 1019.5 |
| 20260509214032 | 63 | 281 | 1.0 | 0.0 | 0.00 | 0.00 | 0.00 | 24 | 1019.4 |
| 20260509213027 | 62 | 263 | 3.0 | 0.0 | 0.00 | 0.00 | 0.00 | 27 | 1019.7 |
| 20260509212021 | 62 | 328 | 4.0 | 0.0 | 0.00 | 0.00 | 0.00 | 23 | 1019.4 |
| 20260509210040 | 62 | 215 | 2.0 | 0.0 | 0.00 | 0.00 | 0.00 | 26 | 1019.5 |
| 20260509205030 | 62 | 306 | 3.0 | 0.0 | 0.00 | 0.00 | 0.00 | 24 | 1019.7 |
| 20260509204028 | 61 | 271 | 3.0 | 0.0 | 0.00 | 0.00 | 0.00 | 25 | 1019.7 |
| 20260509203026 | 62 | 303 | 2.0 | 0.0 | 0.00 | 0.00 | 0.00 | 25 | 1019.5 |